Wetterdaten: Woche 01.04.24 - 07.04.24 (KW14)
Datum Zeit Temp. I. Temp. A. Feuchte I. Feuchte A. Luftdruck Regen Wind Richtung Sonnenschein Solar Taupunkt Windchill Windböen
01.04.2024 00:00 21,3 °C 8,9 °C 52 % 93 % 997,2 hPa 0,0 l/m² 0,0 km/h (0 Bft) SW 0,00 h 0 W/m² 7,8 °C 8,9 °C 0,0 km/h (0 Bft)
01.04.2024 01:00 21,3 °C 7,6 °C 52 % 94 % 996,4 hPa 0,0 l/m² 0,0 km/h (0 Bft) SW 0,00 h 0 W/m² 6,7 °C 7,6 °C 0,0 km/h (0 Bft)
01.04.2024 02:00 21,2 °C 6,5 °C 52 % 94 % 995,8 hPa 0,0 l/m² 0,0 km/h (0 Bft) SW 0,00 h 0 W/m² 5,7 °C 6,5 °C 0,0 km/h (0 Bft)
01.04.2024 03:00 21,2 °C 6,0 °C 52 % 95 % 995,6 hPa 0,0 l/m² 0,0 km/h (0 Bft) SW 0,00 h 0 W/m² 5,3 °C 6,0 °C 0,0 km/h (0 Bft)
01.04.2024 04:00 21,2 °C 6,3 °C 51 % 95 % 995,1 hPa 0,0 l/m² 0,0 km/h (0 Bft) SW 0,00 h 0 W/m² 5,6 °C 6,3 °C 0,0 km/h (0 Bft)
01.04.2024 05:00 21,3 °C 6,6 °C 51 % 95 % 993,9 hPa 0,0 l/m² 0,4 km/h (0 Bft) SW 0,00 h 0 W/m² 5,8 °C 6,6 °C 0,6 km/h (0 Bft)
01.04.2024 06:00 21,2 °C 6,9 °C 51 % 96 % 993,4 hPa 0,0 l/m² 1,7 km/h (1 Bft) SW 0,00 h 5 W/m² 6,2 °C 6,6 °C 3,0 km/h (1 Bft)
01.04.2024 07:00 21,2 °C 7,6 °C 51 % 96 % 993,4 hPa 0,0 l/m² 2,6 km/h (1 Bft) W-SW 0,00 h 20 W/m² 7,0 °C 7,5 °C 4,7 km/h (1 Bft)
01.04.2024 08:00 21,3 °C 8,5 °C 51 % 96 % 993,0 hPa 0,0 l/m² 1,5 km/h (1 Bft) S 0,40 h 58 W/m² 7,9 °C 8,5 °C 2,9 km/h (1 Bft)
01.04.2024 09:00 21,5 °C 10,0 °C 53 % 96 % 992,4 hPa 0,0 l/m² 3,6 km/h (1 Bft) W 0,98 h 139 W/m² 9,4 °C 10,0 °C 7,1 km/h (2 Bft)
01.04.2024 10:00 21,5 °C 11,9 °C 52 % 92 % 992,2 hPa 0,0 l/m² 1,8 km/h (1 Bft) NO 1,00 h 186 W/m² 10,6 °C 11,9 °C 4,0 km/h (1 Bft)
01.04.2024 11:00 21,4 °C 12,7 °C 51 % 87 % 991,7 hPa 0,0 l/m² 4,6 km/h (1 Bft) NW 1,00 h 207 W/m² 10,6 °C 12,4 °C 8,7 km/h (2 Bft)
01.04.2024 12:00 21,3 °C 13,2 °C 52 % 87 % 992,0 hPa 0,0 l/m² 3,8 km/h (1 Bft) W-NW 1,02 h 199 W/m² 11,1 °C 13,1 °C 6,4 km/h (2 Bft)
01.04.2024 13:00 21,4 °C 15,1 °C 53 % 84 % 991,8 hPa 0,0 l/m² 3,9 km/h (1 Bft) S-SW 0,98 h 555 W/m² 12,4 °C 14,8 °C 6,5 km/h (2 Bft)
01.04.2024 14:00 21,6 °C 15,6 °C 53 % 80 % 993,1 hPa 0,0 l/m² 19,9 km/h (4 Bft) SW 0,98 h 380 W/m² 12,3 °C 10,8 °C 28,0 km/h (5 Bft)
01.04.2024 15:00 21,6 °C 13,4 °C 53 % 85 % 994,8 hPa 0,0 l/m² 21,3 km/h (4 Bft) SW 0,87 h 110 W/m² 10,9 °C 7,4 °C 30,6 km/h (5 Bft)
01.04.2024 16:00 21,7 °C 14,8 °C 53 % 77 % 995,9 hPa 0,0 l/m² 26,6 km/h (4 Bft) SW 0,98 h 496 W/m² 10,8 °C 8,1 °C 38,5 km/h (6 Bft)
01.04.2024 17:00 21,7 °C 13,0 °C 53 % 77 % 997,1 hPa 0,0 l/m² 22,8 km/h (4 Bft) SW 0,97 h 84 W/m² 9,2 °C 6,5 °C 32,9 km/h (5 Bft)
01.04.2024 18:00 21,4 °C 12,2 °C 53 % 79 % 997,4 hPa 0,0 l/m² 24,8 km/h (4 Bft) SW 0,48 h 45 W/m² 8,6 °C 4,9 °C 34,8 km/h (5 Bft)
01.04.2024 19:00 21,2 °C 11,4 °C 53 % 83 % 998,2 hPa 0,0 l/m² 21,8 km/h (4 Bft) SW 0,00 h 10 W/m² 8,6 °C 4,7 °C 29,8 km/h (5 Bft)
01.04.2024 20:00 21,2 °C 10,6 °C 55 % 83 % 999,5 hPa 0,0 l/m² 18,7 km/h (3 Bft) SW 0,00 h 0 W/m² 7,8 °C 4,6 °C 26,0 km/h (4 Bft)
01.04.2024 21:00 21,5 °C 10,3 °C 57 % 80 % 1000,5 hPa 0,0 l/m² 18,4 km/h (3 Bft) SW 0,00 h 0 W/m² 7,0 °C 4,4 °C 26,3 km/h (4 Bft)
01.04.2024 22:00 21,6 °C 9,8 °C 58 % 78 % 1001,4 hPa 0,0 l/m² 14,9 km/h (3 Bft) W-SW 0,00 h 0 W/m² 6,2 °C 5,1 °C 20,8 km/h (4 Bft)
01.04.2024 23:00 21,4 °C 9,3 °C 58 % 81 % 1001,7 hPa 0,0 l/m² 12,1 km/h (2 Bft) SW 0,00 h 0 W/m² 6,2 °C 5,8 °C 17,6 km/h (3 Bft)
02.04.2024 00:00 21,3 °C 9,1 °C 58 % 82 % 1001,9 hPa 0,0 l/m² 17,9 km/h (3 Bft) SW 0,00 h 0 W/m² 6,2 °C 2,9 °C 24,6 km/h (4 Bft)
02.04.2024 01:00 21,2 °C 9,0 °C 58 % 84 % 1002,0 hPa 0,0 l/m² 16,4 km/h (3 Bft) SW 0,00 h 0 W/m² 6,4 °C 3,4 °C 23,2 km/h (4 Bft)
02.04.2024 02:00 21,2 °C 8,7 °C 57 % 86 % 1001,8 hPa 0,0 l/m² 14,1 km/h (3 Bft) S-SW 0,00 h 0 W/m² 6,4 °C 4,0 °C 19,5 km/h (3 Bft)
02.04.2024 03:00 21,2 °C 8,9 °C 57 % 86 % 1002,0 hPa 0,0 l/m² 14,5 km/h (3 Bft) SW 0,00 h 0 W/m² 6,8 °C 4,2 °C 20,6 km/h (4 Bft)
02.04.2024 04:00 21,2 °C 9,1 °C 57 % 86 % 1002,4 hPa 0,0 l/m² 12,6 km/h (3 Bft) SW 0,00 h 0 W/m² 6,9 °C 5,4 °C 17,9 km/h (3 Bft)
02.04.2024 05:00 21,2 °C 8,7 °C 56 % 87 % 1003,0 hPa 0,0 l/m² 14,8 km/h (3 Bft) SW 0,00 h 0 W/m² 6,7 °C 3,8 °C 20,5 km/h (4 Bft)
02.04.2024 06:00 21,2 °C 8,7 °C 56 % 87 % 1003,7 hPa 0,0 l/m² 13,0 km/h (3 Bft) SW 0,00 h 6 W/m² 6,8 °C 4,7 °C 19,1 km/h (3 Bft)
02.04.2024 07:00 21,1 °C 8,8 °C 55 % 87 % 1004,0 hPa 0,0 l/m² 17,8 km/h (3 Bft) SW 0,33 h 52 W/m² 6,7 °C 2,7 °C 25,1 km/h (4 Bft)
02.04.2024 08:00 21,1 °C 10,0 °C 54 % 83 % 1004,2 hPa 0,0 l/m² 24,9 km/h (4 Bft) SW 0,98 h 139 W/m² 7,3 °C 2,0 °C 34,9 km/h (5 Bft)
02.04.2024 09:00 21,3 °C 11,3 °C 54 % 79 % 1004,7 hPa 0,0 l/m² 25,2 km/h (4 Bft) SW 1,02 h 353 W/m² 7,8 °C 3,7 °C 36,8 km/h (5 Bft)
02.04.2024 10:00 21,8 °C 12,2 °C 52 % 76 % 1005,3 hPa 0,0 l/m² 26,4 km/h (4 Bft) SW 1,00 h 467 W/m² 8,0 °C 4,6 °C 38,9 km/h (6 Bft)
02.04.2024 11:00 22,0 °C 12,5 °C 52 % 74 % 1006,0 hPa 0,0 l/m² 25,2 km/h (4 Bft) SW 1,00 h 413 W/m² 8,0 °C 5,2 °C 36,1 km/h (5 Bft)
02.04.2024 12:00 21,9 °C 12,7 °C 52 % 73 % 1006,1 hPa 0,0 l/m² 27,1 km/h (5 Bft) SW 0,98 h 280 W/m² 7,9 °C 5,0 °C 38,7 km/h (6 Bft)
02.04.2024 13:00 21,7 °C 12,4 °C 52 % 76 % 1006,3 hPa 0,0 l/m² 21,8 km/h (4 Bft) W-SW 1,00 h 226 W/m² 8,2 °C 6,0 °C 30,8 km/h (5 Bft)
02.04.2024 14:00 21,7 °C 13,7 °C 52 % 70 % 1006,3 hPa 0,0 l/m² 23,3 km/h (4 Bft) W-SW 1,00 h 421 W/m² 8,3 °C 7,3 °C 32,1 km/h (5 Bft)
02.04.2024 15:00 21,8 °C 14,0 °C 52 % 67 % 1006,5 hPa 0,0 l/m² 23,6 km/h (4 Bft) SW 1,00 h 365 W/m² 7,9 °C 7,6 °C 33,6 km/h (5 Bft)
02.04.2024 16:00 21,8 °C 13,2 °C 52 % 75 % 1006,6 hPa 0,0 l/m² 19,0 km/h (3 Bft) SW 1,02 h 350 W/m² 8,9 °C 7,7 °C 26,6 km/h (4 Bft)
02.04.2024 17:00 21,8 °C 13,5 °C 51 % 69 % 1006,6 hPa 0,0 l/m² 17,1 km/h (3 Bft) SW 0,85 h 176 W/m² 8,0 °C 8,9 °C 23,6 km/h (4 Bft)
02.04.2024 18:00 21,7 °C 12,7 °C 51 % 72 % 1006,8 hPa 0,0 l/m² 16,9 km/h (3 Bft) SW 0,70 h 117 W/m² 7,8 °C 7,9 °C 23,0 km/h (4 Bft)
02.04.2024 19:00 21,6 °C 11,4 °C 52 % 78 % 1007,1 hPa 0,2 l/m² 18,2 km/h (3 Bft) SW 0,00 h 8 W/m² 7,6 °C 5,8 °C 24,5 km/h (4 Bft)
02.04.2024 20:00 21,5 °C 9,6 °C 53 % 83 % 1007,6 hPa 0,0 l/m² 13,5 km/h (3 Bft) SW 0,00 h 0 W/m² 6,9 °C 5,4 °C 18,5 km/h (3 Bft)
02.04.2024 21:00 21,7 °C 9,4 °C 53 % 84 % 1008,0 hPa 0,0 l/m² 15,5 km/h (3 Bft) SW 0,00 h 0 W/m² 6,8 °C 4,4 °C 21,5 km/h (4 Bft)
02.04.2024 22:00 21,5 °C 9,3 °C 53 % 84 % 1008,1 hPa 0,0 l/m² 14,8 km/h (3 Bft) SW 0,00 h 0 W/m² 6,8 °C 4,5 °C 20,6 km/h (4 Bft)
02.04.2024 23:00 21,3 °C 9,1 °C 53 % 85 % 1008,0 hPa 0,0 l/m² 16,2 km/h (3 Bft) SW 0,00 h 0 W/m² 6,8 °C 3,6 °C 23,3 km/h (4 Bft)
03.04.2024 00:00 21,3 °C 8,9 °C 53 % 85 % 1008,0 hPa 0,0 l/m² 15,6 km/h (3 Bft) SW 0,00 h 0 W/m² 6,6 °C 3,7 °C 22,6 km/h (4 Bft)
03.04.2024 01:00 21,3 °C 9,2 °C 53 % 86 % 1008,3 hPa 0,0 l/m² 13,0 km/h (3 Bft) SW 0,00 h 0 W/m² 6,9 °C 5,2 °C 18,8 km/h (3 Bft)
03.04.2024 02:00 21,3 °C 9,1 °C 53 % 86 % 1008,0 hPa 0,0 l/m² 12,2 km/h (2 Bft) SW 0,00 h 0 W/m² 6,9 °C 5,4 °C 17,8 km/h (3 Bft)
03.04.2024 03:00 21,2 °C 7,8 °C 53 % 88 % 1007,5 hPa 0,0 l/m² 9,1 km/h (2 Bft) S-SW 0,00 h 0 W/m² 5,9 °C 5,9 °C 12,9 km/h (3 Bft)
03.04.2024 04:00 21,2 °C 7,2 °C 53 % 89 % 1007,2 hPa 0,0 l/m² 11,0 km/h (2 Bft) SW 0,00 h 0 W/m² 5,5 °C 4,0 °C 15,0 km/h (3 Bft)
03.04.2024 05:00 21,2 °C 7,5 °C 53 % 89 % 1007,2 hPa 0,0 l/m² 11,2 km/h (2 Bft) S-SW 0,00 h 0 W/m² 5,8 °C 4,2 °C 15,5 km/h (3 Bft)
03.04.2024 06:00 21,2 °C 7,3 °C 53 % 88 % 1007,1 hPa 0,0 l/m² 10,8 km/h (2 Bft) S-SW 0,00 h 10 W/m² 5,5 °C 4,3 °C 14,9 km/h (3 Bft)
03.04.2024 07:00 21,2 °C 7,8 °C 52 % 89 % 1007,1 hPa 0,0 l/m² 7,5 km/h (2 Bft) S-SW 0,75 h 68 W/m² 6,2 °C 6,7 °C 11,0 km/h (2 Bft)
03.04.2024 08:00 21,2 °C 9,3 °C 52 % 87 % 1007,2 hPa 0,0 l/m² 12,5 km/h (2 Bft) S-SW 0,92 h 101 W/m² 7,3 °C 5,5 °C 17,0 km/h (3 Bft)
03.04.2024 09:00 21,3 °C 10,8 °C 52 % 85 % 1007,4 hPa 0,0 l/m² 10,5 km/h (2 Bft) SW 1,02 h 179 W/m² 8,4 °C 8,3 °C 15,2 km/h (3 Bft)
03.04.2024 10:00 21,3 °C 11,7 °C 52 % 84 % 1007,7 hPa 0,0 l/m² 10,2 km/h (2 Bft) SW 1,00 h 260 W/m² 9,1 °C 9,4 °C 14,6 km/h (3 Bft)
03.04.2024 11:00 21,4 °C 11,8 °C 52 % 85 % 1007,7 hPa 0,2 l/m² 8,8 km/h (2 Bft) SW 1,00 h 153 W/m² 9,4 °C 10,3 °C 12,5 km/h (2 Bft)
03.04.2024 12:00 21,4 °C 12,6 °C 52 % 84 % 1007,9 hPa 0,0 l/m² 9,1 km/h (2 Bft) S-SW 1,00 h 237 W/m² 9,9 °C 11,0 °C 12,1 km/h (2 Bft)
03.04.2024 13:00 21,3 °C 12,9 °C 52 % 82 % 1008,0 hPa 0,0 l/m² 10,6 km/h (2 Bft) SW 1,00 h 195 W/m² 9,9 °C 10,6 °C 15,0 km/h (3 Bft)
03.04.2024 14:00 21,3 °C 13,1 °C 52 % 82 % 1007,8 hPa 0,0 l/m² 8,9 km/h (2 Bft) S-SW 1,00 h 221 W/m² 10,1 °C 11,6 °C 12,0 km/h (2 Bft)
03.04.2024 15:00 21,3 °C 13,1 °C 52 % 75 % 1007,6 hPa 0,0 l/m² 13,2 km/h (3 Bft) S-SW 1,00 h 179 W/m² 8,7 °C 9,6 °C 18,3 km/h (3 Bft)
03.04.2024 16:00 21,3 °C 12,9 °C 52 % 76 % 1007,3 hPa 0,0 l/m² 11,3 km/h (2 Bft) S 1,00 h 136 W/m² 8,8 °C 10,2 °C 16,0 km/h (3 Bft)
03.04.2024 17:00 21,2 °C 12,6 °C 51 % 77 % 1007,1 hPa 0,0 l/m² 12,3 km/h (2 Bft) S 0,87 h 82 W/m² 8,6 °C 9,5 °C 17,7 km/h (3 Bft)
03.04.2024 18:00 21,1 °C 12,4 °C 52 % 76 % 1007,4 hPa 0,0 l/m² 12,4 km/h (2 Bft) S 0,15 h 39 W/m² 8,2 °C 9,1 °C 17,0 km/h (3 Bft)
03.04.2024 19:00 21,1 °C 11,8 °C 53 % 79 % 1007,8 hPa 0,0 l/m² 10,3 km/h (2 Bft) S-SW 0,00 h 12 W/m² 8,2 °C 9,5 °C 14,2 km/h (3 Bft)
03.04.2024 20:00 21,2 °C 10,9 °C 53 % 84 % 1008,1 hPa 0,0 l/m² 7,9 km/h (2 Bft) S-SW 0,00 h 0 W/m² 8,2 °C 9,6 °C 10,8 km/h (2 Bft)
03.04.2024 21:00 21,2 °C 10,6 °C 53 % 85 % 1008,3 hPa 0,0 l/m² 8,0 km/h (2 Bft) S 0,00 h 0 W/m² 8,3 °C 9,4 °C 11,6 km/h (2 Bft)
03.04.2024 22:00 21,3 °C 10,7 °C 54 % 85 % 1008,3 hPa 0,0 l/m² 9,3 km/h (2 Bft) S 0,00 h 0 W/m² 8,2 °C 8,9 °C 12,9 km/h (3 Bft)
03.04.2024 23:00 21,2 °C 10,5 °C 54 % 85 % 1008,3 hPa 0,0 l/m² 6,6 km/h (2 Bft) S-SO 0,00 h 0 W/m² 8,0 °C 10,0 °C 10,0 km/h (2 Bft)
04.04.2024 00:00 21,2 °C 9,9 °C 54 % 87 % 1008,5 hPa 0,0 l/m² 6,7 km/h (2 Bft) S-SO 0,00 h 0 W/m² 7,8 °C 9,3 °C 10,2 km/h (2 Bft)
04.04.2024 01:00 21,1 °C 9,9 °C 54 % 88 % 1008,3 hPa 0,0 l/m² 5,9 km/h (2 Bft) S 0,00 h 0 W/m² 8,0 °C 9,6 °C 9,0 km/h (2 Bft)
04.04.2024 02:00 21,1 °C 9,2 °C 53 % 90 % 1008,4 hPa 0,0 l/m² 1,9 km/h (1 Bft) S-SW 0,00 h 0 W/m² 7,7 °C 9,2 °C 3,8 km/h (1 Bft)
04.04.2024 03:00 21,1 °C 9,1 °C 53 % 91 % 1008,7 hPa 0,0 l/m² 1,1 km/h (1 Bft) S-SW 0,00 h 0 W/m² 7,7 °C 9,1 °C 1,8 km/h (1 Bft)
04.04.2024 04:00 21,1 °C 8,1 °C 53 % 92 % 1008,6 hPa 0,0 l/m² 1,7 km/h (1 Bft) S-SW 0,00 h 0 W/m² 6,9 °C 8,1 °C 2,9 km/h (1 Bft)
04.04.2024 05:00 21,1 °C 7,8 °C 54 % 92 % 1008,8 hPa 0,2 l/m² 2,4 km/h (1 Bft) SW 0,00 h 0 W/m² 6,6 °C 7,8 °C 3,8 km/h (1 Bft)
04.04.2024 06:00 21,1 °C 6,9 °C 53 % 93 % 1009,3 hPa 0,0 l/m² 2,0 km/h (1 Bft) SW 0,00 h 12 W/m² 5,7 °C 6,9 °C 3,7 km/h (1 Bft)
04.04.2024 07:00 21,1 °C 7,6 °C 52 % 90 % 1009,5 hPa 0,0 l/m² 4,5 km/h (1 Bft) S-SW 0,63 h 60 W/m² 6,0 °C 7,2 °C 6,5 km/h (2 Bft)
04.04.2024 08:00 21,2 °C 10,3 °C 52 % 85 % 1009,3 hPa 0,0 l/m² 7,8 km/h (2 Bft) S-SW 1,00 h 186 W/m² 7,8 °C 9,2 °C 11,5 km/h (2 Bft)
04.04.2024 09:00 21,2 °C 10,5 °C 52 % 83 % 1009,2 hPa 0,0 l/m² 10,0 km/h (2 Bft) S 1,02 h 83 W/m² 7,8 °C 8,2 °C 14,6 km/h (3 Bft)
04.04.2024 10:00 21,2 °C 11,5 °C 52 % 83 % 1008,8 hPa 0,0 l/m² 8,8 km/h (2 Bft) S-SO 0,98 h 101 W/m² 8,7 °C 9,9 °C 13,2 km/h (3 Bft)
04.04.2024 11:00 21,2 °C 12,7 °C 52 % 84 % 1008,2 hPa 0,0 l/m² 10,3 km/h (2 Bft) SO 1,00 h 101 W/m² 10,0 °C 10,5 °C 15,5 km/h (3 Bft)
04.04.2024 12:00 21,1 °C 13,4 °C 52 % 84 % 1007,5 hPa 0,0 l/m² 14,6 km/h (3 Bft) S 1,02 h 119 W/m² 10,8 °C 9,4 °C 21,2 km/h (4 Bft)
04.04.2024 13:00 21,2 °C 13,9 °C 52 % 86 % 1006,9 hPa 0,6 l/m² 14,0 km/h (3 Bft) S 0,98 h 142 W/m² 11,6 °C 10,3 °C 20,8 km/h (4 Bft)
04.04.2024 14:00 21,2 °C 14,2 °C 52 % 85 % 1006,5 hPa 0,2 l/m² 16,0 km/h (3 Bft) S-SW 1,00 h 167 W/m² 11,8 °C 10,0 °C 23,2 km/h (4 Bft)
04.04.2024 15:00 21,4 °C 15,8 °C 52 % 80 % 1006,6 hPa 0,0 l/m² 24,6 km/h (4 Bft) SW 1,02 h 461 W/m² 12,3 °C 9,8 °C 35,1 km/h (5 Bft)
04.04.2024 16:00 21,6 °C 15,8 °C 52 % 76 % 1006,5 hPa 0,0 l/m² 24,6 km/h (4 Bft) SW 0,98 h 290 W/m² 11,6 °C 9,8 °C 35,0 km/h (5 Bft)
04.04.2024 17:00 21,4 °C 14,8 °C 52 % 77 % 1006,9 hPa 0,0 l/m² 19,3 km/h (3 Bft) SW 1,00 h 150 W/m² 10,8 °C 9,8 °C 28,0 km/h (5 Bft)
04.04.2024 18:00 21,3 °C 14,1 °C 52 % 77 % 1007,7 hPa 1,0 l/m² 18,6 km/h (3 Bft) SW 0,47 h 58 W/m² 10,1 °C 9,2 °C 26,7 km/h (4 Bft)
04.04.2024 19:00 21,3 °C 11,3 °C 53 % 87 % 1008,6 hPa 0,2 l/m² 11,4 km/h (2 Bft) SW 0,37 h 49 W/m² 9,2 °C 8,4 °C 16,5 km/h (3 Bft)
04.04.2024 20:00 21,2 °C 10,2 °C 54 % 87 % 1009,6 hPa 0,2 l/m² 12,1 km/h (2 Bft) S-SW 0,00 h 0 W/m² 8,2 °C 6,8 °C 16,4 km/h (3 Bft)
04.04.2024 21:00 21,3 °C 9,5 °C 55 % 90 % 1010,6 hPa 0,0 l/m² 7,0 km/h (2 Bft) S-SW 0,00 h 0 W/m² 7,9 °C 8,8 °C 9,4 km/h (2 Bft)
04.04.2024 22:00 21,2 °C 10,3 °C 54 % 88 % 1011,1 hPa 0,0 l/m² 11,2 km/h (2 Bft) S-SW 0,00 h 0 W/m² 8,5 °C 7,3 °C 14,8 km/h (3 Bft)
04.04.2024 23:00 21,1 °C 10,6 °C 55 % 88 % 1011,7 hPa 0,0 l/m² 6,2 km/h (2 Bft) SW 0,00 h 0 W/m² 8,8 °C 10,2 °C 8,6 km/h (2 Bft)
05.04.2024 00:00 21,1 °C 10,5 °C 55 % 90 % 1012,2 hPa 0,0 l/m² 8,5 km/h (2 Bft) S-SW 0,00 h 0 W/m² 8,9 °C 8,9 °C 11,9 km/h (2 Bft)
05.04.2024 01:00 21,1 °C 10,5 °C 55 % 90 % 1012,6 hPa 0,0 l/m² 6,1 km/h (2 Bft) S-SW 0,00 h 0 W/m² 9,0 °C 10,0 °C 8,8 km/h (2 Bft)
05.04.2024 02:00 21,1 °C 9,6 °C 55 % 91 % 1012,7 hPa 0,0 l/m² 3,7 km/h (1 Bft) S 0,00 h 0 W/m² 8,2 °C 9,4 °C 6,2 km/h (2 Bft)
05.04.2024 03:00 21,1 °C 8,4 °C 55 % 93 % 1012,8 hPa 0,0 l/m² 6,1 km/h (2 Bft) S-SW 0,00 h 0 W/m² 7,3 °C 7,8 °C 8,6 km/h (2 Bft)
05.04.2024 04:00 21,0 °C 7,9 °C 55 % 93 % 1012,9 hPa 0,0 l/m² 6,5 km/h (2 Bft) S 0,00 h 0 W/m² 6,8 °C 7,3 °C 9,1 km/h (2 Bft)
05.04.2024 05:00 21,0 °C 8,1 °C 55 % 93 % 1013,3 hPa 0,0 l/m² 1,8 km/h (1 Bft) S-SW 0,00 h 0 W/m² 7,1 °C 8,1 °C 3,2 km/h (1 Bft)
05.04.2024 06:00 21,1 °C 7,5 °C 54 % 93 % 1013,5 hPa 0,0 l/m² 2,8 km/h (1 Bft) S-SW 0,00 h 9 W/m² 6,5 °C 7,5 °C 4,3 km/h (1 Bft)
05.04.2024 07:00 21,1 °C 9,4 °C 54 % 93 % 1013,6 hPa 0,0 l/m² 0,9 km/h (0 Bft) O-NO 0,85 h 70 W/m² 8,3 °C 9,4 °C 2,4 km/h (1 Bft)
05.04.2024 08:00 21,1 °C 11,1 °C 53 % 91 % 1014,0 hPa 0,0 l/m² 2,5 km/h (1 Bft) SO 1,00 h 104 W/m² 9,7 °C 11,1 °C 4,4 km/h (1 Bft)
05.04.2024 09:00 21,1 °C 12,7 °C 53 % 90 % 1014,0 hPa 0,0 l/m² 8,4 km/h (2 Bft) S 1,00 h 191 W/m² 11,1 °C 11,4 °C 12,0 km/h (2 Bft)
05.04.2024 10:00 21,2 °C 14,4 °C 53 % 87 % 1014,2 hPa 0,0 l/m² 12,1 km/h (2 Bft) S 1,00 h 375 W/m² 12,2 °C 11,8 °C 15,9 km/h (3 Bft)
05.04.2024 11:00 21,8 °C 16,4 °C 52 % 81 % 1014,4 hPa 0,0 l/m² 13,0 km/h (3 Bft) S-SW 1,00 h 539 W/m² 13,2 °C 13,6 °C 17,5 km/h (3 Bft)
05.04.2024 12:00 21,8 °C 16,5 °C 52 % 81 % 1013,5 hPa 0,0 l/m² 10,4 km/h (2 Bft) S 1,00 h 352 W/m² 13,2 °C 14,7 °C 14,1 km/h (3 Bft)
05.04.2024 13:00 22,0 °C 17,9 °C 52 % 77 % 1012,6 hPa 0,0 l/m² 13,7 km/h (3 Bft) S 1,00 h 486 W/m² 13,8 °C 15,1 °C 19,1 km/h (3 Bft)
05.04.2024 14:00 22,1 °C 18,8 °C 52 % 74 % 1011,7 hPa 0,0 l/m² 13,7 km/h (3 Bft) SO 0,98 h 458 W/m² 14,0 °C 16,3 °C 18,8 km/h (3 Bft)
05.04.2024 15:00 22,1 °C 19,2 °C 53 % 72 % 1010,6 hPa 0,0 l/m² 17,1 km/h (3 Bft) S-SO 1,02 h 278 W/m² 13,9 °C 15,8 °C 23,9 km/h (4 Bft)
05.04.2024 16:00 21,9 °C 18,3 °C 54 % 73 % 1010,5 hPa 0,0 l/m² 13,4 km/h (3 Bft) S 0,80 h 96 W/m² 13,4 °C 15,7 °C 19,1 km/h (3 Bft)
05.04.2024 17:00 21,7 °C 17,9 °C 54 % 77 % 1010,1 hPa 0,0 l/m² 9,9 km/h (2 Bft) S-SO 0,87 h 91 W/m² 13,8 °C 16,4 °C 13,8 km/h (3 Bft)
05.04.2024 18:00 21,8 °C 18,0 °C 58 % 76 % 1009,8 hPa 0,0 l/m² 9,3 km/h (2 Bft) S 0,12 h 46 W/m² 13,6 °C 16,7 °C 12,8 km/h (3 Bft)
05.04.2024 19:00 22,1 °C 17,7 °C 60 % 75 % 1009,6 hPa 0,0 l/m² 11,5 km/h (2 Bft) S-SW 0,00 h 15 W/m² 13,2 °C 15,6 °C 15,0 km/h (3 Bft)
05.04.2024 20:00 22,1 °C 17,7 °C 59 % 71 % 1010,5 hPa 0,0 l/m² 15,8 km/h (3 Bft) SW 0,00 h 0 W/m² 12,4 °C 14,5 °C 21,4 km/h (4 Bft)
05.04.2024 21:00 22,1 °C 16,9 °C 57 % 72 % 1011,6 hPa 0,0 l/m² 12,7 km/h (3 Bft) SW 0,00 h 0 W/m² 11,9 °C 14,5 °C 17,1 km/h (3 Bft)
05.04.2024 22:00 22,0 °C 14,8 °C 57 % 80 % 1012,7 hPa 0,0 l/m² 4,0 km/h (1 Bft) W-SW 0,00 h 0 W/m² 11,3 °C 14,8 °C 5,7 km/h (2 Bft)
05.04.2024 23:00 21,7 °C 13,0 °C 58 % 85 % 1013,0 hPa 0,0 l/m² 2,2 km/h (1 Bft) W 0,00 h 0 W/m² 10,6 °C 13,0 °C 3,1 km/h (1 Bft)
06.04.2024 00:00 21,6 °C 12,6 °C 57 % 85 % 1013,6 hPa 0,0 l/m² 2,0 km/h (1 Bft) SW 0,00 h 0 W/m² 10,2 °C 12,6 °C 3,1 km/h (1 Bft)
06.04.2024 01:00 21,6 °C 11,3 °C 57 % 89 % 1014,1 hPa 0,0 l/m² 0,4 km/h (0 Bft) SW 0,00 h 0 W/m² 9,5 °C 11,3 °C 0,6 km/h (0 Bft)
06.04.2024 02:00 21,5 °C 10,9 °C 57 % 91 % 1014,2 hPa 0,0 l/m² 1,6 km/h (1 Bft) O 0,00 h 0 W/m² 9,5 °C 10,9 °C 2,6 km/h (1 Bft)
06.04.2024 03:00 21,5 °C 11,9 °C 57 % 88 % 1014,5 hPa 0,0 l/m² 0,9 km/h (0 Bft) N-NW 0,00 h 0 W/m² 10,0 °C 11,9 °C 1,8 km/h (1 Bft)
06.04.2024 04:00 21,5 °C 11,7 °C 57 % 89 % 1014,7 hPa 0,0 l/m² 0,7 km/h (0 Bft) N-NW 0,00 h 0 W/m² 10,0 °C 11,7 °C 1,6 km/h (1 Bft)
06.04.2024 05:00 21,4 °C 12,9 °C 57 % 87 % 1014,8 hPa 0,0 l/m² 1,8 km/h (1 Bft) S 0,00 h 0 W/m² 10,8 °C 12,9 °C 3,3 km/h (1 Bft)
06.04.2024 06:00 21,4 °C 13,2 °C 57 % 86 % 1014,9 hPa 0,0 l/m² 1,7 km/h (1 Bft) S 0,00 h 8 W/m² 10,9 °C 13,1 °C 2,8 km/h (1 Bft)
06.04.2024 07:00 21,4 °C 13,7 °C 57 % 87 % 1015,3 hPa 0,0 l/m² 2,5 km/h (1 Bft) S-SO 0,48 h 46 W/m² 11,5 °C 13,7 °C 4,1 km/h (1 Bft)
06.04.2024 08:00 21,4 °C 15,4 °C 57 % 85 % 1015,5 hPa 0,0 l/m² 2,8 km/h (1 Bft) S-SO 1,00 h 164 W/m² 12,8 °C 15,4 °C 4,6 km/h (1 Bft)
06.04.2024 09:00 21,7 °C 17,8 °C 58 % 78 % 1015,7 hPa 0,0 l/m² 7,2 km/h (2 Bft) S 0,98 h 426 W/m² 14,0 °C 17,3 °C 10,6 km/h (2 Bft)
06.04.2024 10:00 21,9 °C 19,5 °C 57 % 75 % 1015,8 hPa 0,0 l/m² 10,4 km/h (2 Bft) SW 1,00 h 545 W/m² 14,8 °C 18,0 °C 14,6 km/h (3 Bft)
06.04.2024 11:00 22,0 °C 20,6 °C 56 % 71 % 1015,5 hPa 0,0 l/m² 10,8 km/h (2 Bft) SW 1,02 h 587 W/m² 15,2 °C 19,1 °C 15,0 km/h (3 Bft)
06.04.2024 12:00 22,1 °C 21,7 °C 56 % 69 % 1015,3 hPa 0,0 l/m² 13,4 km/h (3 Bft) S 1,00 h 750 W/m² 15,8 °C 19,7 °C 18,3 km/h (3 Bft)
06.04.2024 13:00 22,3 °C 22,3 °C 57 % 68 % 1015,1 hPa 0,0 l/m² 11,0 km/h (2 Bft) S 1,00 h 560 W/m² 15,9 °C 20,9 °C 15,6 km/h (3 Bft)
06.04.2024 14:00 22,3 °C 23,0 °C 56 % 65 % 1014,6 hPa 0,0 l/m² 10,1 km/h (2 Bft) S 1,00 h 561 W/m² 16,1 °C 22,0 °C 14,6 km/h (3 Bft)
06.04.2024 15:00 22,6 °C 24,4 °C 54 % 59 % 1014,1 hPa 0,0 l/m² 10,5 km/h (2 Bft) S-SO 0,98 h 627 W/m² 15,7 °C 23,4 °C 16,2 km/h (3 Bft)
06.04.2024 16:00 22,6 °C 24,8 °C 53 % 56 % 1013,5 hPa 0,0 l/m² 10,1 km/h (2 Bft) S-SO 1,02 h 489 W/m² 15,3 °C 23,9 °C 14,7 km/h (3 Bft)
06.04.2024 17:00 22,7 °C 25,0 °C 52 % 51 % 1013,1 hPa 0,0 l/m² 10,1 km/h (2 Bft) S-SO 1,00 h 380 W/m² 14,1 °C 24,1 °C 14,7 km/h (3 Bft)
06.04.2024 18:00 22,8 °C 23,0 °C 53 % 55 % 1013,1 hPa 0,0 l/m² 5,7 km/h (2 Bft) SO 0,45 h 99 W/m² 13,4 °C 22,8 °C 8,0 km/h (2 Bft)
06.04.2024 19:00 22,4 °C 19,8 °C 50 % 62 % 1012,9 hPa 0,0 l/m² 4,0 km/h (1 Bft) S-SO 0,00 h 25 W/m² 12,1 °C 19,7 °C 5,6 km/h (2 Bft)
06.04.2024 20:00 22,3 °C 16,6 °C 51 % 71 % 1013,4 hPa 0,0 l/m² 0,9 km/h (0 Bft) S-SO 0,00 h 0 W/m² 11,2 °C 16,6 °C 1,6 km/h (1 Bft)
06.04.2024 21:00 22,5 °C 14,7 °C 53 % 77 % 1013,6 hPa 0,0 l/m² 0,7 km/h (0 Bft) NO 0,00 h 0 W/m² 10,7 °C 14,7 °C 1,2 km/h (1 Bft)
06.04.2024 22:00 22,3 °C 13,4 °C 52 % 81 % 1013,7 hPa 0,0 l/m² 1,3 km/h (1 Bft) NO 0,00 h 0 W/m² 10,2 °C 13,4 °C 2,2 km/h (1 Bft)
06.04.2024 23:00 22,1 °C 12,8 °C 53 % 83 % 1013,6 hPa 0,0 l/m² 0,6 km/h (0 Bft) NO 0,00 h 0 W/m² 9,9 °C 12,8 °C 1,4 km/h (1 Bft)
07.04.2024 00:00 22,1 °C 11,7 °C 54 % 86 % 1013,7 hPa 0,0 l/m² 1,5 km/h (1 Bft) NO 0,00 h 0 W/m² 9,4 °C 11,7 °C 2,8 km/h (1 Bft)
07.04.2024 01:00 22,0 °C 11,0 °C 55 % 86 % 1013,4 hPa 0,0 l/m² 1,2 km/h (1 Bft) NO 0,00 h 0 W/m² 8,8 °C 11,0 °C 2,7 km/h (1 Bft)
07.04.2024 02:00 21,9 °C 10,2 °C 55 % 89 % 1013,2 hPa 0,0 l/m² 0,9 km/h (0 Bft) NO 0,00 h 0 W/m² 8,5 °C 10,2 °C 2,1 km/h (1 Bft)
07.04.2024 03:00 21,8 °C 9,9 °C 55 % 91 % 1012,8 hPa 0,0 l/m² 0,2 km/h (0 Bft) O-NO 0,00 h 0 W/m² 8,4 °C 9,9 °C 0,6 km/h (0 Bft)
07.04.2024 04:00 21,9 °C 9,1 °C 55 % 91 % 1012,5 hPa 0,0 l/m² 1,5 km/h (1 Bft) O-NO 0,00 h 0 W/m² 7,8 °C 9,1 °C 2,4 km/h (1 Bft)
07.04.2024 05:00 21,9 °C 9,2 °C 55 % 92 % 1012,1 hPa 0,0 l/m² 3,5 km/h (1 Bft) O-NO 0,00 h 0 W/m² 7,9 °C 9,2 °C 4,7 km/h (1 Bft)
07.04.2024 06:00 21,9 °C 9,4 °C 55 % 90 % 1012,2 hPa 0,0 l/m² 2,1 km/h (1 Bft) W 0,00 h 11 W/m² 7,9 °C 9,3 °C 3,9 km/h (1 Bft)
07.04.2024 07:00 21,8 °C 11,2 °C 55 % 86 % 1012,5 hPa 0,0 l/m² 1,6 km/h (1 Bft) NO 0,40 h 57 W/m² 9,0 °C 11,2 °C 2,9 km/h (1 Bft)
07.04.2024 08:00 21,8 °C 13,7 °C 55 % 86 % 1013,5 hPa 0,0 l/m² 0,9 km/h (0 Bft) NO 1,00 h 176 W/m² 11,4 °C 13,7 °C 2,1 km/h (1 Bft)
07.04.2024 09:00 22,0 °C 17,9 °C 56 % 76 % 1014,7 hPa 0,0 l/m² 0,7 km/h (0 Bft) NO 1,02 h 259 W/m² 13,6 °C 17,9 °C 1,6 km/h (1 Bft)
07.04.2024 10:00 22,2 °C 20,1 °C 56 % 67 % 1015,6 hPa 0,0 l/m² 3,6 km/h (1 Bft) W-SW 1,00 h 322 W/m² 13,8 °C 20,1 °C 5,6 km/h (2 Bft)
07.04.2024 11:00 22,5 °C 21,8 °C 55 % 61 % 1016,5 hPa 0,0 l/m² 8,0 km/h (2 Bft) W-SW 1,00 h 580 W/m² 13,8 °C 20,8 °C 13,0 km/h (3 Bft)
07.04.2024 12:00 22,7 °C 22,1 °C 53 % 58 % 1017,1 hPa 0,0 l/m² 9,4 km/h (2 Bft) NW 0,98 h 634 W/m² 13,4 °C 21,1 °C 16,0 km/h (3 Bft)
07.04.2024 13:00 22,9 °C 22,6 °C 52 % 59 % 1017,0 hPa 0,0 l/m² 3,8 km/h (1 Bft) SW 1,02 h 712 W/m² 14,2 °C 22,6 °C 6,5 km/h (2 Bft)
07.04.2024 14:00 22,7 °C 22,5 °C 53 % 63 % 1016,6 hPa 0,0 l/m² 6,7 km/h (2 Bft) S 1,00 h 497 W/m² 15,2 °C 22,1 °C 10,1 km/h (2 Bft)
07.04.2024 15:00 22,7 °C 23,2 °C 55 % 62 % 1016,0 hPa 0,0 l/m² 9,3 km/h (2 Bft) S 1,00 h 518 W/m² 15,5 °C 22,4 °C 12,9 km/h (3 Bft)
07.04.2024 16:00 22,9 °C 23,4 °C 55 % 58 % 1015,8 hPa 0,0 l/m² 10,6 km/h (2 Bft) SW 1,00 h 409 W/m² 14,7 °C 22,3 °C 15,0 km/h (3 Bft)
07.04.2024 17:00 22,7 °C 22,5 °C 55 % 66 % 1015,2 hPa 0,0 l/m² 3,2 km/h (1 Bft) S 1,00 h 194 W/m² 15,8 °C 22,4 °C 5,1 km/h (1 Bft)
07.04.2024 18:00 22,6 °C 21,9 °C 56 % 69 % 1014,7 hPa 0,0 l/m² 2,7 km/h (1 Bft) S 0,98 h 106 W/m² 15,9 °C 21,9 °C 4,1 km/h (1 Bft)
07.04.2024 19:00 22,6 °C 20,2 °C 57 % 68 % 1014,4 hPa 0,0 l/m² 4,2 km/h (1 Bft) O-SO 0,00 h 23 W/m² 14,1 °C 20,2 °C 6,1 km/h (2 Bft)
07.04.2024 20:00 22,7 °C 18,1 °C 57 % 75 % 1014,4 hPa 0,0 l/m² 1,0 km/h (0 Bft) O-SO 0,00 h 0 W/m² 13,7 °C 18,1 °C 1,8 km/h (1 Bft)
07.04.2024 21:00 22,9 °C 16,6 °C 57 % 80 % 1014,2 hPa 0,0 l/m² 0,2 km/h (0 Bft) O-SO 0,00 h 0 W/m² 13,1 °C 16,6 °C 0,5 km/h (0 Bft)
07.04.2024 22:00 22,8 °C 15,4 °C 57 % 86 % 1013,7 hPa 0,0 l/m² 1,4 km/h (1 Bft) O-SO 0,00 h 0 W/m² 13,0 °C 15,4 °C 1,9 km/h (1 Bft)
07.04.2024 23:00 22,5 °C 15,7 °C 57 % 84 % 1013,3 hPa 0,0 l/m² 1,3 km/h (1 Bft) O-SO 0,00 h 0 W/m² 13,0 °C 15,7 °C 2,2 km/h (1 Bft)
Min-Datum _ 05.04.24 01.04.24 06.04.24 06.04.24 01.04.24 - 07.04.24 - - - 01.04.24 02.04.24 07.04.24
_ Min-Zeit 05:00 03:31 20:06 17:23 11:43 - 23:16 - - - 03:31 08:36 23:27
Minimum _ 20,9 °C 5,4 °C 49 % 48 % 991,3 hPa - 0,0 km/h (0 Bft) - - - 4,5 °C 0,6 °C 0,0 km/h (0 Bft)
Max-Datum _ 07.04.24 06.04.24 05.04.24 01.04.24 07.04.24 04.04.24 04.04.24 - 07.04.24 02.04.24 06.04.24 06.04.24 04.04.24
_ Max-Zeit 22:01 17:26 19:00 09:01 12:39 18:46 18:44 - 12:16 14:15 14:58 17:36 18:44
Maximum _ 22,9 °C 25,2 °C 61 % 96 % 1017,4 hPa 1,0 l/m² 41,4 km/h
SW (6 Bft)
- 0,10 h 912 W/m² 17,7 °C 25,0 °C 66,0 km/h
SW (8 Bft)
Durchschnitt _ 21,6 °C 12,9 °C 54 % 82 % 1008,3 hPa #2,8 l/m² 9,4 km/h (2 Bft) SW #75:41 h 134 W/m² 9,7 °C 10,8 °C 13,5 km/h (3 Bft)
© 2009 Mathias Hoßbach